User: anonymous   Login
Location: Unspecified
(0.0000°N, 0.0000°E)
Time: 05:08:50
(UTC+00:00)
Language:

DNEPR OBJECT U - Orbit

View from above orbital plane
View from above orbital plane
View from above satellite
View from above satellite

Ground track
Ground track

The orbit data is extracted from the following two-line orbital elements,

1 39434U 13066U   18344.65854106  .00001534  00000-0  11290-3 0  9993
2 39434  97.6036  57.6332 0034209 124.5763 235.8714 15.04391916276181
Epoch (UTC): 10 December 2018 15:48:17
Eccentricity: 0.0034209
inclination: 97.6036°
perigee height: 529 km
apogee height: 577 km
right ascension of ascending node: 57.6332°
argument of perigee: 124.5763°
revolutions per day: 15.04391916
mean anomaly at epoch: 235.8714°
orbit number at epoch: 27618

The dashed part of the orbit path shows where the satellite is in the earth's shadow,  

DLR